Welcome to the New NWS' Forecast!
Most changes are behind the scenes, but click here for differences you might notice.

Regional Weather Roundup (RWR)

Issued by Burlington, VT (BTV)

                            
569 
ASUS41 KBTV 201230
RWRBTV
VERMONT REGIONAL WEATHER ROUNDUP
NATIONAL WEATHER SERVICE BURLINGTON VT
800 AM EDT MON AUG 20 2018

NOTE: "FAIR" INDICATES FEW OR NO CLOUDS BELOW 12,000 FEET WITH NO 
SIGNIFICANT WEATHER AND/OR OBSTRUCTIONS TO VISIBILITY.

* THESE REPORTS ARE NOT UNDER NWS QUALITY CONTROL AND/OR DO NOT
  REPORT WEATHER SUCH AS PRECIPITATION AND FOG.

VTZ001>019-201300-
_____VERMONT_____

  
CITY           SKY/WX    TMP DP  RH WIND       PRES   REMARKS
BURLINGTON     FAIR      68  58  70 SE5       30.18S                  
6HR MIN TEMP:  61; 6HR MAX TEMP:  68;                                

MONTPELIER     FOG       57  57 100 CALM      30.25F VSB 1/4          
6HR MIN TEMP:  55; 6HR MAX TEMP:  60;                                

MORRISVILLE    FAIR      59  59 100 S3        30.21F                  
6HR MIN TEMP:  51; 6HR MAX TEMP:  59;                                

ST. JOHNSBURY*   N/A     54  54 100 MISG      30.22S                  
6HR MIN TEMP:  54; 6HR MAX TEMP:  58;                                

LYNDONVILLE*   FAIR      56  56  98 CALM      30.24F                  
6HR MIN TEMP:  51; 6HR MAX TEMP:  55;                                

MIDDLEBURY*    FAIR      64  59  85 S3        30.19S                  
6HR MIN TEMP:  55; 6HR MAX TEMP:  62;                                

SPRINGFIELD    CLOUDY    57  57 100 CALM      30.23R FOG              
6HR MIN TEMP:  56; 6HR MAX TEMP:  58;                                

HIGHGATE*      FAIR      68  60  75 S3        30.17F                  
6HR MIN TEMP:  58; 6HR MAX TEMP:  66;                                

NEWPORT*       FAIR      63  60  90 S3        30.22S                  
6HR MIN TEMP:  53; 6HR MAX TEMP:  61;                                

BENNINGTON     FAIR      64  58  80 N3        30.19S                  
6HR MIN TEMP:  54; 6HR MAX TEMP:  64;                                

LAKE EDEN*       N/A     61 N/A N/A CALM        N/A                   
MT. MANSFIELD*   N/A     55 N/A N/A SE7         N/A                   

_____LAKE CHAMPLAIN_____

  
CITY           SKY/WX    TMP DP  RH WIND       PRES   REMARKS
BURTON ISLAND*   N/A     68  59  73 S10G16      N/A                   
COLCHESTER RF*   N/A     68  63  83 S16         N/A                   
DIAMOND ISL*     N/A     64  59  82 S7          N/A                   

$$

NYZ007-026>031-035-052-083-087-201300-
_____NORTHERN NEW YORK_____

  
CITY           SKY/WX    TMP DP  RH WIND       PRES   REMARKS
PLATTSBURGH    FAIR      60  58  92 CALM      30.18R                  
6HR MIN TEMP:  54; 6HR MAX TEMP:  60;                                

SARANAC LAKE   FAIR      55  54  96 CALM      30.20S                  
6HR MIN TEMP:  43; 6HR MAX TEMP:  55;                                

MASSENA        CLOUDY    65  60  84 CALM      30.17R                  
6HR MIN TEMP:  58; 6HR MAX TEMP:  65;                                

OGDENSBURG*    PTSUNNY   64  61  90 CALM      30.16S                  
6HR MIN TEMP:  57; 6HR MAX TEMP:  63;                                

WATERTOWN      PTSUNNY   64  61  90 E3        30.15R                  
6HR MIN TEMP:  57; 6HR MAX TEMP:  64;                                

FT DRUM        FAIR      64  62  94 SE9       30.16R                  
6HR MIN TEMP:  60; 6HR MAX TEMP:  64;                                

ALBANY         FAIR      64  59  83 NW5       30.19R                  
6HR MIN TEMP:  60; 6HR MAX TEMP:  67;                                

GLENS FALLS    FAIR      62  61  96 CALM      30.19R                  
6HR MIN TEMP:  55; 6HR MAX TEMP:  63; 6HR PCP: TRACE;                


$$
NHZ002-005-011-201300-
_____NEW HAMPSHIRE_____

  
CITY           SKY/WX    TMP DP  RH WIND       PRES   REMARKS
LEBANON        FOG       59  56  89 N5        30.21S VSB 1/2          
6HR MIN TEMP:  58; 6HR MAX TEMP:  60;                                

KEENE          CLOUDY   N/A N/A N/A CALM      30.20S                  
MT WASHINGTON  FOG       45  45 100 NE22        N/A  VSB 1/2          
6HR MIN TEMP:  43; 6HR MAX TEMP:  53;                                

PLYMOUTH       CLOUDY    57  56  97 CALM      30.22S                  
6HR MIN TEMP:  55; 6HR MAX TEMP:  57;                                

WHITEFIELD     FAIR      50  50 100 CALM      30.24S                  
6HR MIN TEMP:  45; 6HR MAX TEMP:  51;                                


$$

_____REGIONAL QUEBEC LOCATIONS_____

  
CITY           SKY/WX    TMP DP  RH WIND       PRES   REMARKS
MONTREAL       PTSUNNY   64  57  77 N6        30.17R                  
QUEBEC CITY    MOSUNNY   63  55  77 N5        30.21R                  
SHERBROOKE     MOSUNNY   61  57  88 NE6       30.21S                  

_____REGIONAL ONTARIO LOCATIONS_____

  
CITY           SKY/WX    TMP DP  RH WIND       PRES   REMARKS
OTTAWA         PTSUNNY   61  59  94 NE5       30.15R                  

______KEY______
VSB  - VISIBILITY IN MILES
WCI  - WIND CHILL INDEX
HX   - HEAT INDEX
$$
NNNN